User: anonymous   Login
Location: Hancock Field Station
(44.9202°N, 120.4259°W)
Time: 13:42:57
(UTC-07:00)
Language:

Cosmos 1707 - Orbit

View from above orbital plane
View from above orbital plane
View from above satellite
View from above satellite

Ground track
Ground track

The orbit data is extracted from the following two-line orbital elements,

1 16326U 85113A   14304.42223363  .00006260  00000-0  39182-3 0   499
2 16326 082.5163 069.1120 0010288 022.6466 337.5215 15.09191023572325
Epoch (UTC): 31 October 2014 10:08:00
Eccentricity: 0.0010288
inclination: 82.5163°
perigee height: 531 km
apogee height: 546 km
right ascension of ascending node: 69.1120°
argument of perigee: 22.6466°
revolutions per day: 15.09191023
mean anomaly at epoch: 337.5215°
orbit number at epoch: 57232

The dashed part of the orbit path shows where the satellite is in the earth's shadow,  

DLR